Hourly Data Report for September 07, 2017

All times are specified in Local Standard Time (LST). Add 1 hour to adjust for Daylight Saving Time where and when it is observed.

MIRAMICHI RCS
NEW BRUNSWICK

47°00'34.000" N
65°27'54.000" W
33.00 m
8100989
71744
ACQ

Download Data

Hourly Data (September 2017)
Hourly Data Report for September 7, 2017
Temp Definition
°C
Dew Point Temp Definition
°C
Rel Hum Definition
%
Wind Dir Definition
10's deg

Wind Spd Definition
km/h
Visibility Definition
km
Stn Press Definition
kPa
Hmdx Definition


Wind Chill Definition


Weather Definition


TIME
00:00 18.7 18.1 97 18 6   100.97     LegendNANA
01:00 18.7 18.3 97 17 7   100.97     LegendNANA
02:00 18.9 18.3 96 18 9   100.93     LegendNANA
03:00 19.0 18.4 96 17 9   100.85     LegendNANA
04:00 19.1 18.6 97 16 6   100.77     LegendNANA
05:00 19.4 18.9 97 16 10   100.66     LegendNANA
06:00 19.9 19.3 96 15 13   100.61     LegendNANA
07:00 20.2 19.6 96 16 14   100.55 27   LegendNANA
08:00 20.5 20.0 97 16 14   100.43 28   LegendNANA
09:00 21.0 20.5 97 14 10   100.31 29   LegendNANA
10:00 21.9 20.9 94 17 19   100.24 30   LegendNANA
11:00 22.7 21.0 91 19 21   100.16 31   LegendNANA
12:00 22.8 20.5 87 19 21   100.06 31   LegendNANA
13:00 22.0 20.6 92 19 21   100.00 30   LegendNANA
14:00 23.0 20.4 86 20 24   99.94 31   LegendNANA
15:00 23.3 19.1 77 21 32   99.88 30   LegendNANA
16:00 22.2 18.5 80 21 30   99.89 29   LegendNANA
17:00 22.1 18.2 79 21 24   99.91 28   LegendNANA
18:00 21.1 17.7 81 21 22   99.96 27   LegendNANA
19:00 20.4 17.3 83 22 24   100.02 26   LegendNANA
20:00 19.3 15.5 79 23 24   100.10     LegendNANA
21:00 18.3 15.1 82 24 18   100.20     LegendNANA
22:00 17.6 16.1 91 22 15   100.26     LegendNANA
23:00 17.6 15.9 90 22 18   100.29     LegendNANA

Notes on Data Quality.

Legend

  • E = Estimated
  • M = Missing
  • NA = Not Available
  • ‡ = Partner data that is not subject to review by the National Climate Archives
Date modified: